GW1690 Weather Reports


time (UTC)temp
C
wind
direction
speed
KPH
gust
KPH
rain 1hr
cm
rain 24hr
cm
rain mn
cm
humidity
%
barometer
mb
20260906040023 31 242 3.2 4.8 0.00 0.00 0.00 65 1034.1
20260906035525 31 243 3.2 4.8 0.00 0.00 0.00 64 1032.3
20260906035021 31 240 3.2 4.8 0.00 0.00 0.00 64 1030.7
20260906034542 31 249 3.2 4.8 0.00 0.00 0.00 64 1029.4
20260906034041 31 248 3.2 4.8 0.00 0.00 0.00 63 1028.0
20260906033525 31 251 3.2 4.8 0.00 0.00 0.00 63 1026.4
20260906033023 31 250 3.2 4.8 0.00 0.00 0.00 62 1024.7
20260906032523 31 240 3.2 4.8 0.00 0.00 0.00 61 1022.6
20260906032024 31 252 3.2 6.4 0.00 0.00 0.00 61 1021.2
20260906031524 31 245 3.2 4.8 0.00 0.00 0.00 60 1019.3
20260906031021 31 241 3.2 3.2 0.00 0.00 0.00 59 1018.0
20260906030540 31 248 3.2 4.8 0.00 0.00 0.00 58 1017.4
20260906030040 31 253 3.2 4.8 0.00 0.00 0.00 58 1016.7
20260906025523 31 250 3.2 4.8 0.00 0.00 0.00 57 1016.2
20260906025021 31 249 3.2 4.8 0.00 0.00 0.00 57 1015.8
20260906024524 31 247 3.2 4.8 0.00 0.00 0.00 57 1015.5
20260906024025 31 247 3.2 4.8 0.00 0.00 0.00 57 1015.4
20260906023522 31 250 3.2 4.8 0.00 0.00 0.00 57 1015.5
20260906023021 31 242 3.2 4.8 0.00 0.00 0.00 57 1015.6
20260906022541 31 240 3.2 3.2 0.00 0.00 0.00 57 1015.3
20260906022041 31 240 3.2 3.2 0.00 0.00 0.00 56 1015.1
20260906021522 31 240 3.2 4.8 0.00 0.00 0.00 56 1014.9
20260906021022 31 238 3.2 4.8 0.00 0.00 0.00 56 1014.6
20260906020521 31 241 3.2 3.2 0.00 0.00 0.00 55 1014.3
20260906020022 32 238 3.2 3.2 0.00 0.00 0.00 55 1014.0
20260906015523 32 241 3.2 3.2 0.00 0.00 0.00 54 1013.9
20260906015042 32 241 3.2 3.2 0.00 0.00 0.00 54 1013.6
20260906014527 32 241 3.2 3.2 0.00 0.00 0.00 53 1013.4
20260906014102 32 243 3.2 3.2 0.00 0.00 0.00 53 1013.3
20260906013524 32 244 3.2 3.2 0.00 0.00 0.00 52 1013.0
20260906013042 32 237 1.6 3.2 0.00 0.00 0.00 52 1012.8
20260906012524 32 241 1.6 3.2 0.00 0.00 0.00 52 1012.6
20260906012043 32 239 1.6 3.2 0.00 0.00 0.00 51 1012.5
20260906011522 33 241 1.6 3.2 0.00 0.00 0.00 51 1012.4
20260906011024 33 241 1.6 3.2 0.00 0.00 0.00 51 1012.1
20260906010522 33 236 1.6 3.2 0.00 0.00 0.00 50 1012.0
20260906010023 33 251 1.6 3.2 0.00 0.00 0.00 50 1011.9
20260906005523 33 251 1.6 3.2 0.00 0.00 0.00 50 1011.9
20260906005043 33 258 3.2 3.2 0.00 0.00 0.00 50 1011.8
20260906004522 33 260 1.6 3.2 0.00 0.00 0.00 49 1011.5
20260906004027 34 262 1.6 3.2 0.00 0.00 0.00 49 1011.2
20260906003520 34 261 1.6 3.2 0.00 0.00 0.00 48 1011.0
20260906003020 34 267 1.6 3.2 0.00 0.00 0.00 48 1010.9
20260906002521 35 268 1.6 3.2 0.00 0.00 0.00 47 1010.7
20260906002021 35 270 1.6 3.2 0.00 0.00 0.00 47 1010.7
20260906001523 35 269 1.6 3.2 0.00 0.00 0.00 46 1010.3
20260906001123 35 270 1.6 1.6 0.00 0.00 0.00 46 1010.3
20260906000543 35 270 0.0 1.6 0.00 0.00 0.00 45 1010.1
20260906000023 35 273 1.6 1.6 0.00 0.00 0.00 45 1009.9
20260905235522 35 277 1.6 3.2 0.00 0.00 0.00 44 1009.8
20260905235021 35 281 1.6 3.2 0.00 0.00 0.00 44 1009.7
20260905234522 35 283 3.2 4.8 0.00 0.00 0.00 44 1009.7
20260905234021 35 280 1.6 3.2 0.00 0.00 0.00 44 1009.7
20260905233521 36 276 1.6 3.2 0.00 0.00 0.00 43 1009.6
20260905233041 36 277 1.6 3.2 0.00 0.00 0.00 43 1009.5
20260905232524 36 273 1.6 1.6 0.00 0.00 0.00 43 1009.4
20260905232025 36 273 1.6 3.2 0.00 0.00 0.00 43 1009.4
20260905231541 36 275 1.6 3.2 0.00 0.00 0.00 42 1009.3
20260905231023 36 279 1.6 4.8 0.00 0.00 0.00 42 1009.2
20260905230523 36 277 1.6 4.8 0.00 0.00 0.00 42 1009.1
20260905230042 36 278 3.2 6.4 0.00 0.00 0.00 41 1009.0
20260905225522 36 282 1.6 3.2 0.00 0.00 0.00 41 1008.8
20260905225023 37 281 3.2 4.8 0.00 0.00 0.00 40 1008.6
20260905224522 37 282 1.6 4.8 0.00 0.00 0.00 41 1008.7
20260905224022 37 286 1.6 3.2 0.00 0.00 0.00 41 1008.7
20260905223522 37 286 0.0 3.2 0.00 0.00 0.00 41 1008.8
20260905223022 37 287 1.6 4.8 0.00 0.00 0.00 41 1008.9
20260905222522 37 281 1.6 3.2 0.00 0.00 0.00 42 1009.0
20260905222022 37 283 3.2 4.8 0.00 0.00 0.00 41 1008.9
20260905221522 37 288 1.6 4.8 0.00 0.00 0.00 41 1008.9
20260905221043 37 287 1.6 3.2 0.00 0.00 0.00 40 1008.6
20260905220523 38 289 1.6 4.8 0.00 0.00 0.00 40 1008.6
20260905220022 38 288 1.6 6.4 0.00 0.00 0.00 40 1008.6
20260905215520 38 293 1.6 3.2 0.00 0.00 0.00 39 1008.6
20260905215020 38 280 1.6 3.2 0.00 0.00 0.00 39 1008.5
20260905214523 38 288 1.6 4.8 0.00 0.00 0.00 39 1008.5
20260905214023 38 288 1.6 4.8 0.00 0.00 0.00 39 1008.5
20260905213523 38 294 1.6 4.8 0.00 0.00 0.00 39 1008.5
20260905213026 38 275 1.6 4.8 0.00 0.00 0.00 39 1008.5
20260905212545 38 291 1.6 4.8 0.00 0.00 0.00 39 1008.5
20260905212022 38 287 1.6 4.8 0.00 0.00 0.00 38 1008.3
20260905211520 37 280 1.6 4.8 0.00 0.00 0.00 37 1008.2
20260905211022 37 285 1.6 8.0 0.00 0.00 0.00 38 1008.3
20260905210521 37 251 1.6 4.8 0.00 0.00 0.00 38 1008.4
20260905210020 37 224 1.6 6.4 0.00 0.00 0.00 39 1008.5
20260905205524 38 163 1.6 8.0 0.00 0.00 0.00 38 1008.4
20260905205022 38 152 3.2 8.0 0.00 0.00 0.00 37 1008.1
20260905204527 38 251 1.6 8.0 0.00 0.00 0.00 36 1008.0
20260905204022 38 274 1.6 3.2 0.00 0.00 0.00 36 1008.0
20260905203523 38 265 1.6 3.2 0.00 0.00 0.00 36 1008.1
20260905203021 38 295 1.6 4.8 0.00 0.00 0.00 36 1008.0
20260905202521 38 289 1.6 4.8 0.00 0.00 0.00 35 1007.8
20260905202022 38 294 3.2 6.4 0.00 0.00 0.00 35 1007.8
20260905201526 38 293 3.2 6.4 0.00 0.00 0.00 36 1008.1
20260905201042 38 291 3.2 4.8 0.00 0.00 0.00 36 1008.2
20260905200522 38 292 3.2 8.0 0.00 0.00 0.00 36 1008.2
20260905200021 38 281 0.0 3.2 0.00 0.00 0.00 37 1008.5
20260905195521 38 245 1.6 3.2 0.00 0.00 0.00 36 1008.3
20260905195045 38 287 3.2 6.4 0.00 0.00 0.00 36 1008.3
20260905194522 38 289 3.2 9.7 0.00 0.00 0.00 35 1008.3
20260905194024 38 290 1.6 6.4 0.00 0.00 0.00 35 1008.4
20260905193523 38 272 1.6 3.2 0.00 0.00 0.00 36 1008.6
20260905193040 38 217 1.6 6.4 0.00 0.00 0.00 36 1008.6
20260905192523 38 290 3.2 6.4 0.00 0.00 0.00 36 1008.6
20260905192022 38 287 1.6 6.4 0.00 0.00 0.00 36 1008.7
20260905191523 39 298 3.2 4.8 0.00 0.00 0.00 36 1008.7
20260905191022 39 296 3.2 6.4 0.00 0.00 0.00 35 1008.6
20260905190522 39 269 1.6 6.4 0.00 0.00 0.00 35 1008.6
20260905190023 39 278 1.6 4.8 0.00 0.00 0.00 35 1008.7
20260905185524 39 279 1.6 6.4 0.00 0.00 0.00 34 1008.4
20260905185022 39 296 3.2 4.8 0.00 0.00 0.00 34 1008.4
20260905184524 40 298 1.6 3.2 0.00 0.00 0.00 36 1008.9
20260905184020 40 242 1.6 3.2 0.00 0.00 0.00 36 1009.0
20260905183520 40 289 1.6 4.8 0.00 0.00 0.00 36 1008.8
20260905183022 40 293 1.6 4.8 0.00 0.00 0.00 36 1008.9
20260905182525 40 261 1.6 6.4 0.00 0.00 0.00 36 1008.9
20260905182025 40 272 1.6 6.4 0.00 0.00 0.00 36 1008.9
20260905181525 40 114 1.6 9.7 0.00 0.00 0.00 38 1009.0
20260905181045 41 259 1.6 6.4 0.00 0.00 0.00 36 1008.9
20260905180523 41 278 3.2 8.0 0.00 0.00 0.00 36 1008.8
20260905180021 40 262 1.6 6.4 0.00 0.00 0.00 36 1009.0
20260905175541 40 224 1.6 8.0 0.00 0.00 0.00 37 1009.3
20260905175021 40 264 1.6 6.4 0.00 0.00 0.00 37 1009.1
20260905174544 41 190 3.2 8.0 0.00 0.00 0.00 38 1009.2
20260905174021 41 244 1.6 6.4 0.00 0.00 0.00 38 1009.3
20260905173544 41 260 3.2 4.8 0.00 0.00 0.00 37 1009.3
20260905173021 40 252 1.6 6.4 0.00 0.00 0.00 36 1009.1
20260905172522 40 265 1.6 8.0 0.00 0.00 0.00 37 1009.3
20260905172021 40 226 3.2 6.4 0.00 0.00 0.00 38 1009.5
20260905171522 40 262 1.6 4.8 0.00 0.00 0.00 37 1009.6
20260905171022 40 287 3.2 8.0 0.00 0.00 0.00 37 1009.4
20260905170522 40 245 1.6 6.4 0.00 0.00 0.00 37 1009.5
20260905170021 39 255 1.6 8.0 0.00 0.00 0.00 38 1009.8
20260905165523 39 264 1.6 4.8 0.00 0.00 0.00 39 1009.9
20260905165022 39 290 3.2 6.4 0.00 0.00 0.00 40 1009.9
20260905164523 39 288 3.2 8.0 0.00 0.00 0.00 39 1009.9
20260905164022 39 285 3.2 6.4 0.00 0.00 0.00 39 1010.0
20260905163522 38 266 1.6 4.8 0.00 0.00 0.00 42 1010.5
20260905163024 38 268 1.6 4.8 0.00 0.00 0.00 43 1010.8
20260905162542 38 153 1.6 8.0 0.00 0.00 0.00 43 1010.7
20260905162023 38 194 1.6 4.8 0.00 0.00 0.00 41 1010.6
20260905161542 38 244 1.6 4.8 0.00 0.00 0.00 41 1010.3
20260905161023 38 288 1.6 6.4 0.00 0.00 0.00 42 1010.5
20260905160523 38 263 1.6 4.8 0.00 0.00 0.00 43 1010.9
20260905160042 38 189 1.6 4.8 0.00 0.00 0.00 43 1010.7
20260905155524 38 276 1.6 4.8 0.00 0.00 0.00 43 1010.8
20260905155023 37 285 1.6 4.8 0.00 0.00 0.00 43 1011.0
20260905154544 37 272 1.6 6.4 0.00 0.00 0.00 44 1010.9
20260905154025 36 281 1.6 6.4 0.00 0.00 0.00 45 1011.2
20260905153522 36 283 3.2 8.0 0.00 0.00 0.00 46 1011.5
20260905153023 36 280 1.6 4.8 0.00 0.00 0.00 47 1011.8
20260905152523 35 284 1.6 4.8 0.00 0.00 0.00 50 1012.4
20260905152023 34 280 1.6 3.2 0.00 0.00 0.00 52 1012.8
20260905151541 34 217 1.6 4.8 0.00 0.00 0.00 54 1013.1
20260905151020 34 243 0.0 3.2 0.00 0.00 0.00 54 1013.2
20260905150526 34 257 1.6 3.2 0.00 0.00 0.00 53 1012.9
20260905150026 33 256 1.6 3.2 0.00 0.00 0.00 54 1013.0
20260905145527 33 136 1.6 4.8 0.00 0.00 0.00 54 1013.0
20260905145026 33 245 1.6 3.2 0.00 0.00 0.00 55 1013.1
20260905144527 32 228 1.6 4.8 0.00 0.00 0.00 57 1013.5
20260905144027 32 126 0.0 3.2 0.00 0.00 0.00 58 1014.2
20260905143526 31 260 1.6 3.2 0.00 0.00 0.00 60 1016.0
20260905143027 31 244 1.6 3.2 0.00 0.00 0.00 62 1019.3
20260905142527 30 248 3.2 4.8 0.00 0.00 0.00 63 1021.5
20260905142027 30 229 1.6 3.2 0.00 0.00 0.00 64 1023.1
20260905141528 30 171 1.6 3.2 0.00 0.00 0.00 65 1026.1
20260905141028 30 188 3.2 4.8 0.00 0.00 0.00 65 1029.1
20260905140530 29 220 3.2 6.4 0.00 0.00 0.00 66 1033.1
20260905140028 29 236 3.2 4.8 0.00 0.00 0.00 67 1036.0
20260905135547 28 214 1.6 3.2 0.00 0.00 0.00 67 1039.8
20260905135028 28 178 1.6 3.2 0.00 0.00 0.00 68 1041.3
20260905134528 28 201 1.6 3.2 0.00 0.00 0.00 68 1043.7
20260905134030 28 197 3.2 3.2 0.00 0.00 0.00 69 1046.1
20260905133529 28 221 1.6 3.2 0.00 0.00 0.00 69 1046.1
20260905133029 28 230 3.2 3.2 0.00 0.00 0.00 70 858.3
20260905132530 28 162 1.6 4.8 0.00 0.00 0.00 71 858.2
20260905132028 27 180 1.6 3.2 0.00 0.00 0.00 71 858.2
20260905131551 27 187 1.6 4.8 0.00 0.00 0.00 72 858.1
20260905131028 27 130 1.6 3.2 0.00 0.00 0.00 72 858.1
20260905130528 27 135 1.6 3.2 0.00 0.00 0.00 73 858.1
20260905130028 27 181 1.6 3.2 0.00 0.00 0.00 73 858.1
20260905125529 27 213 1.6 3.2 0.00 0.00 0.00 73 858.1
20260905125029 27 219 1.6 3.2 0.00 0.00 0.00 73 858.0
20260905124532 27 208 3.2 4.8 0.00 0.00 0.00 74 858.0
20260905124049 27 209 1.6 3.2 0.00 0.00 0.00 74 858.0
20260905123530 27 227 1.6 3.2 0.00 0.00 0.00 74 858.0
20260905123029 27 200 1.6 3.2 0.00 0.00 0.00 74 858.0
20260905122550 27 200 1.6 3.2 0.00 0.00 0.00 74 858.0
20260905122030 27 185 1.6 3.2 0.00 0.00 0.00 74 858.0
20260905121610 27 214 1.6 3.2 0.00 0.00 0.00 74 858.0
20260905121105 27 211 1.6 3.2 0.00 0.00 0.00 74 858.0
20260905120533 26 212 1.6 3.2 0.00 0.00 0.00 74 858.0
20260905120030 26 214 1.6 3.2 0.00 0.00 0.00 74 858.0
20260905115532 26 215 1.6 3.2 0.00 0.00 0.00 74 858.0
20260905115031 26 214 1.6 3.2 0.00 0.00 0.00 75 858.0
20260905114530 26 209 1.6 3.2 0.00 0.00 0.00 75 858.0
20260905114031 26 199 1.6 1.6 0.00 0.00 0.00 76 857.9
20260905113550 26 192 1.6 3.2 0.00 0.00 0.00 77 857.9
20260905113030 26 172 1.6 3.2 0.00 0.00 0.00 78 857.9
20260905112531 26 192 1.6 1.6 0.00 0.00 0.00 80 857.9
20260905112030 26 208 1.6 1.6 0.00 0.00 0.00 80 857.9
20260905111531 26 204 1.6 1.6 0.00 0.00 0.00 80 857.9
20260905111032 26 200 1.6 1.6 0.00 0.00 0.00 79 857.9
20260905110531 26 232 1.6 3.2 0.00 0.00 0.00 79 857.9
20260905110031 26 230 1.6 3.2 0.00 0.00 0.00 80 857.9
20260905105533 26 225 1.6 3.2 0.00 0.00 0.00 79 857.9
20260905105031 26 216 0.0 1.6 0.00 0.00 0.00 79 857.9
20260905104532 26 214 0.0 1.6 0.00 0.00 0.00 79 857.9
20260905104031 26 214 0.0 1.6 0.00 0.00 0.00 79 857.9
20260905103531 26 219 0.0 1.6 0.00 0.00 0.00 78 857.9
20260905103031 26 210 1.6 1.6 0.00 0.00 0.00 78 857.9
20260905102532 26 212 1.6 1.6 0.00 0.00 0.00 78 857.9
20260905102053 26 211 1.6 1.6 0.00 0.00 0.00 78 857.9
20260905101534 26 211 1.6 1.6 0.00 0.00 0.00 77 857.9
20260905101033 26 215 1.6 1.6 0.00 0.00 0.00 77 857.9
20260905100534 26 212 0.0 3.2 0.00 0.00 0.00 76 858.0
20260905100052 26 222 0.0 3.2 0.00 0.00 0.00 76 902.5
20260905095533 27 221 0.0 3.2 0.00 0.00 0.00 76 1080.4
20260905095035 27 220 0.0 1.6 0.00 0.00 0.00 75 1078.7
20260905094533 27 228 1.6 4.8 0.00 0.00 0.00 75 1077.7
20260905094033 27 232 4.8 4.8 0.00 0.00 0.00 75 1077.8
20260905093534 27 232 3.2 4.8 0.00 0.00 0.00 75 1076.6
20260905093053 27 230 3.2 4.8 0.00 0.00 0.00 75 1076.1
20260905092533 27 232 3.2 4.8 0.00 0.00 0.00 74 1075.8
20260905092034 27 224 1.6 3.2 0.00 0.00 0.00 74 1075.7
20260905091533 27 232 3.2 4.8 0.00 0.00 0.00 74 1076.2
20260905091033 27 233 3.2 4.8 0.00 0.00 0.00 74 1075.7
20260905090535 27 226 1.6 3.2 0.00 0.00 0.00 74 1073.7
20260905090034 27 220 1.6 3.2 0.00 0.00 0.00 74 1073.9
20260905085533 27 212 1.6 1.6 0.00 0.00 0.00 74 1073.5
20260905085053 27 216 1.6 1.6 0.00 0.00 0.00 73 1071.7
20260905084533 27 218 0.0 1.6 0.00 0.00 0.00 73 1071.5
20260905084033 27 215 0.0 1.6 0.00 0.00 0.00 74 1073.9
20260905083534 27 216 0.0 1.6 0.00 0.00 0.00 74 1074.5
20260905083036 27 214 1.6 1.6 0.00 0.00 0.00 75 1077.4
20260905082534 27 215 1.6 1.6 0.00 0.00 0.00 75 1078.2
20260905082049 27 209 1.6 1.6 0.00 0.00 0.00 75 1079.2
20260905081535 27 210 1.6 1.6 0.00 0.00 0.00 75 1077.2
20260905081036 27 212 1.6 1.6 0.00 0.00 0.00 74 1075.7
20260905080533 27 218 0.0 1.6 0.00 0.00 0.00 74 1074.3
20260905080035 27 219 1.6 3.2 0.00 0.00 0.00 73 1070.5
20260905075520 27 220 0.0 1.6 0.00 0.00 0.00 73 1068.3
20260905075035 27 229 3.2 4.8 0.00 0.00 0.00 72 1065.8
20260905074519 27 233 3.2 4.8 0.00 0.00 0.00 72 1066.0
20260905074019 27 240 4.8 4.8 0.00 0.00 0.00 72 1065.8
20260905073536 28 239 4.8 4.8 0.00 0.00 0.00 72 1065.7
20260905073034 28 230 3.2 4.8 0.00 0.00 0.00 72 1064.2
20260905072535 28 219 1.6 3.2 0.00 0.00 0.00 72 1063.3
20260905072034 28 217 1.6 1.6 0.00 0.00 0.00 71 1061.4
20260905071535 28 215 1.6 1.6 0.00 0.00 0.00 71 1061.0
20260905071035 28 217 1.6 3.2 0.00 0.00 0.00 71 1060.5
20260905070555 28 230 3.2 4.8 0.00 0.00 0.00 71 1058.7
20260905070038 28 234 4.8 4.8 0.00 0.00 0.00 71 1058.5
20260905065537 28 233 3.2 4.8 0.00 0.00 0.00 71 1058.1
20260905065055 28 229 3.2 4.8 0.00 0.00 0.00 70 1056.3
20260905064541 28 219 0.0 1.6 0.00 0.00 0.00 70 1055.6
20260905064020 28 217 1.6 3.2 0.00 0.00 0.00 70 1053.3
20260905063521 28 218 0.0 1.6 0.00 0.00 0.00 69 1052.6
20260905063100 28 223 1.6 3.2 0.00 0.00 0.00 70 1053.2
20260905062521 28 227 3.2 3.2 0.00 0.00 0.00 68 1047.7
20260905062021 28 222 1.6 3.2 0.00 0.00 0.00 69 1048.5
20260905061521 28 223 1.6 3.2 0.00 0.00 0.00 69 1049.3
20260905061041 28 212 1.6 3.2 0.00 0.00 0.00 69 1050.0
20260905060523 28 220 0.0 3.2 0.00 0.00 0.00 69 1048.2
20260905060021 28 222 1.6 3.2 0.00 0.00 0.00 68 1046.4
20260905055522 28 220 0.0 1.6 0.00 0.00 0.00 68 1047.4
20260905055042 28 222 1.6 3.2 0.00 0.00 0.00 68 1047.4
20260905054523 28 218 0.0 1.6 0.00 0.00 0.00 68 1045.9
20260905054024 28 217 1.6 3.2 0.00 0.00 0.00 68 1044.9
20260905053522 28 214 1.6 3.2 0.00 0.00 0.00 68 1045.5
20260905053021 28 222 1.6 3.2 0.00 0.00 0.00 67 1042.5
20260905052522 28 223 1.6 3.2 0.00 0.00 0.00 67 1043.3
20260905052022 28 215 1.6 3.2 0.00 0.00 0.00 68 1045.4
20260905051545 28 215 1.6 3.2 0.00 0.00 0.00 68 1045.8
20260905051023 28 230 3.2 3.2 0.00 0.00 0.00 68 1047.0
20260905050522 28 233 3.2 3.2 0.00 0.00 0.00 68 1046.7
20260905050044 28 226 1.6 3.2 0.00 0.00 0.00 68 1044.5
20260905045522 28 220 1.6 3.2 0.00 0.00 0.00 68 1046.2
20260905045021 28 216 0.0 1.6 0.00 0.00 0.00 68 1046.1
20260905044521 28 220 1.6 3.2 0.00 0.00 0.00 68 1048.5
20260905044021 28 228 1.6 3.2 0.00 0.00 0.00 68 1048.2
20260905043522 28 228 1.6 3.2 0.00 0.00 0.00 68 1046.3
20260905043020 28 230 3.2 3.2 0.00 0.00 0.00 68 1047.2
20260905042522 28 221 1.6 3.2 0.00 0.00 0.00 68 1047.0
20260905042022 28 220 0.0 1.6 0.00 0.00 0.00 68 1046.1
20260905041522 28 220 1.6 3.2 0.00 0.00 0.00 68 1048.0
20260905041023 28 223 1.6 3.2 0.00 0.00 0.00 68 1045.8
20260905040522 29 226 1.6 3.2 0.00 0.00 0.00 67 1044.8